sat.trackr.live / text

‹ back to catalog

STARLINK-4530

NORAD 53393 · 2022-097F

PAYLOAD ACTIVE UNKNOWN

§ Identity

Operator
Country
US
Launch date
2022-08-10
Launch site
AFETR
Launch vehicle
Mass (kg)
RCS (m²)

Purposes: comms

External: N2YO · Heavens-Above · Gunter

§ Orbital elements

Epoch: 2026-05-25T03:35:39.408288Z

Period
95.44 min
Inclination
53.2132°
Eccentricity
0.0001149
Mean motion
15.08839352 rev/d
Perigee alt
539.0 km
Apogee alt
540.5 km
Semi-major
6,917.9 km
B*
-1.6857e-4
RAAN
140.8764°
Arg perigee
72.8506°
Mean anomaly
287.2611°
Rev number
21,021

§ Raw data

STARLINK-45301 53393U 22097F   26145.14976167 -.00002970  00000+0 -16857-3 0  99912 53393  53.2132 140.8764 0001149  72.8506 287.2611 15.08839352210211

JSON: /api/v1/satellites/53393 · /tle

For live sub-satellite position, see the globe view (requires WebGL).

§ Visibility from observer

Set your observer location to see the next 7 days of passes ≥ 10°. The values pass through the URL so the page stays shareable.

No JS? Fill the form by hand. The geolocation button needs JavaScript.